Weather History for Eau Claire, WI

Change the Weather History Date:

Tuesday, November 13, 2012

  Actual Average Record
Temperature  
Mean Temperature 28 °F 34 °F  
Max Temperature 39 °F 43 °F 69 °F (1999)
Min Temperature 17 °F 26 °F -3 °F (1986)
Degree Days  
Heating Degree Days 37 31  
Month to date heating degree days 338 355  
Since 1 July heating degree days 1191 1139  
Cooling Degree Days 0 0  
Month to date cooling degree days 0 0  
Year to date cooling degree days 830 579  
Moisture  
Dew Point 18 °F    
Average Humidity 68    
Maximum Humidity 92    
Minimum Humidity 44    
Precipitation  
Precipitation 0.00 in 0.06 in 2.06 in (1906)
Month to date precipitation 0.70 0.83  
Year to date precipitation 22.41 28.97  
Snow  
Snow 0.00 in 0.20 in 2.30 in (1909)
Month to date snowfall 0.9 1.6  
Since 1 July snowfall 0.9 2.0  
Since 1 September snowfall 0.9 2.0  
Snow Depth 0.00 in    
Sea Level Pressure  
Sea Level Pressure 30.37 in    
Wind  
Wind Speed 6 mph (SSW)    
Max Wind Speed 13 mph    
Max Gust Speed 15 mph    
Visibility 10 miles    
Events      
T = Trace of Precipitation, MM = Missing Value Source: NWS Daily Summary

Daily Weather History Graph

Daily Weather History Graph

Search for Another Location

Airport:

Trip Planner

Search our weather history database for the weather conditions in past years. The results will help you decide how hot, cold, wet, or windy it might be!

Date:

Astronomy

Nov. 13, 2012 Rise Set
Actual Time 7:01 AM CST 4:38 PM CST
Civil Twilight 6:29 AM CST 5:10 PM CST
Nautical Twilight 5:54 AM CST 5:45 PM CST
Astronomical Twilight 5:19 AM CST 6:20 PM CST
Moon 6:40 AM CST (11/13) 4:30 PM CST (11/13)
Length of Visible Light 10h 40m
Length of Day
9h 37m
Waning Crescent, 0% of the Moon is Illuminated
Nov 13
Waning Crescent
Nov 13
New
Nov 20
First Quarter
Nov 28
Full
Dec 6
Last Quarter

Hourly Weather History & Observations

Time (CST) Temp. Windchill Dew Point Humidity Pressure Visibility Wind Dir Wind Speed Gust Speed Precip Events Conditions
12:56 AM 23.0 °F 12.4 °F 14.0 °F 68% 30.32 in 10.0 mi WNW 10.4 mph - N/A   Overcast
1:43 AM 21.2 °F 12.6 °F 14.0 °F 74% 30.28 in 10.0 mi West 6.9 mph - N/A   Scattered Clouds
1:56 AM 21.9 °F 14.5 °F 15.1 °F 75% 30.33 in 10.0 mi West 5.8 mph - N/A   Mostly Cloudy
2:56 AM 21.9 °F 14.5 °F 15.1 °F 75% 30.35 in 10.0 mi West 5.8 mph - N/A   Overcast
3:56 AM 21.0 °F 14.6 °F 15.1 °F 78% 30.36 in 10.0 mi WSW 4.6 mph - N/A   Overcast
4:56 AM 19.0 °F 13.9 °F 15.1 °F 85% 30.38 in 10.0 mi WSW 3.5 mph - N/A   Mostly Cloudy
5:31 AM 17.6 °F 10.7 °F 14.0 °F 86% 30.34 in 10.0 mi SW 4.6 mph - N/A   Scattered Clouds
5:56 AM 18.0 °F 11.1 °F 14.0 °F 84% 30.39 in 10.0 mi SW 4.6 mph - N/A   Clear
6:56 AM 18.0 °F 12.7 °F 15.1 °F 88% 30.41 in 10.0 mi SSW 3.5 mph - N/A   Clear
7:56 AM 21.0 °F - 17.1 °F 85% 30.42 in 8.0 mi Calm Calm - N/A   Clear
8:56 AM 23.0 °F 17.0 °F 18.0 °F 81% 30.42 in 10.0 mi South 4.6 mph - N/A   Clear
9:56 AM 26.1 °F 19.4 °F 18.0 °F 71% 30.44 in 10.0 mi SSW 5.8 mph - N/A   Clear
10:56 AM 30.0 °F 22.4 °F 16.0 °F 56% 30.43 in 10.0 mi SSW 8.1 mph - N/A   Clear
11:56 AM 33.1 °F 26.1 °F 16.0 °F 50% 30.39 in 10.0 mi South 8.1 mph - N/A   Clear
12:56 PM 36.0 °F 29.6 °F 16.0 °F 44% 30.38 in 10.0 mi SW 8.1 mph - N/A   Clear
1:56 PM 37.0 °F 31.0 °F 17.1 °F 44% 30.37 in 10.0 mi SSW 8.1 mph - N/A   Clear
2:56 PM 37.9 °F 30.9 °F 18.0 °F 45% 30.36 in 10.0 mi SSW 10.4 mph - N/A   Clear
3:56 PM 37.0 °F 31.0 °F 19.0 °F 48% 30.37 in 10.0 mi South 8.1 mph - N/A   Clear
4:56 PM 35.1 °F 30.1 °F 19.9 °F 54% 30.37 in 10.0 mi South 5.8 mph - N/A   Clear
5:56 PM 34.0 °F 28.8 °F 19.9 °F 56% 30.37 in 10.0 mi SSE 5.8 mph - N/A   Clear
6:56 PM 32.0 °F 27.5 °F 19.9 °F 61% 30.37 in 10.0 mi SSE 4.6 mph - N/A   Clear
7:56 PM 32.0 °F 28.7 °F 21.0 °F 64% 30.37 in 10.0 mi South 3.5 mph - N/A   Clear
8:56 PM 30.9 °F - 21.9 °F 69% 30.38 in 10.0 mi Calm Calm - N/A   Clear
9:56 PM 33.1 °F 30.0 °F 23.0 °F 66% 30.37 in 10.0 mi South 3.5 mph - N/A   Overcast
10:56 PM 34.0 °F 28.8 °F 23.0 °F 64% 30.37 in 10.0 mi South 5.8 mph - N/A   Overcast
11:56 PM 35.1 °F 29.3 °F 23.0 °F 61% 30.36 in 10.0 mi South 6.9 mph - N/A   Overcast